FLOCK 4BE 1

导读

FLOCK 4BE 1是一颗由美国发射的卫星,于2024年8月16日北京时间8时发射入轨。该卫星属于FLOCK卫星星座系列,这类卫星通常承担地球遥感观测任务,可获取高分辨率对地影像,在地理测绘、灾害监测、资源调查、城市规划等领域具备应用价值,目前该卫星已在轨运行超一年半,持续提供对地观测数据服务。

基本信息
目录编号:
60518
目录名称:
FLOCK 4BE 1
国际标识:
2024-149BC
轨道中心:
EARTH
卫星名称:
FLOCK 4BE 1
卫星全名:
FLOCK 4BE 1
卫星状态:
在轨 (已飞行756 天)
发射日期:
2024-08-16 UTC
国别 :
美国 (US)
星等 :
--
该卫星已列入 空间交会检测服务 Space Conjunction Data Service (SCDS) ,当前飞行风险评估等级: 无高风险
轨道信息
数据来源 国际轨道数据
星历时间: 2026-09-11T01:35:04+0800
15小时前
查看轨道信息
半长轴: 6807.876km
偏心率: 0.0003298
轨道倾角: 97.375°
近地点辐角 358.651°
升交点赤经 339.975°
平近点角 1.473°
近地点: 427.493km
远地点: 431.985km
周期: 93.170分钟
每日圈数: 15.455583
详细信息
使用方式:
暂无
2D轨道图
3D轨道图
轨道高度分析图
轨道倾角分析图
轨道综合分析图
查看轨道综合分析图
与全量物体交会距离演化趋势
与全量物体交会风险概率演化趋势